AAL2375 KPHX-KSAT

Flight info

Callsign AAL2375
Flight time 1h 49m
Altitude 37000
Route ECLPS1 PHASE ELP FST MOPPP DNKIN1
Aircraft A20N/M-SDE2E3FGHIRWXY/LB1

Departure

Time 2026-05-07 15:17
Airport Phoenix Sky Harbor International Airport (KPHX)

Arrival

Time 2026-05-07 17:06
Airport San Antonio International Airport (KSAT)
Time Latitude Longitude Altitude Speed Heading
2026-05-07 14:26 33.43752 -111.99980 1134 ft 0 kts 90°
2026-05-07 15:00 33.43752 -111.99990 1138 ft 4 kts 85°
2026-05-07 15:00 33.43747 -112.00017 1136 ft 4 kts 52°
2026-05-07 15:00 33.43729 -112.00032 1138 ft 3 kts
2026-05-07 15:01 33.43725 -112.00032 1137 ft 1 kts
2026-05-07 15:07 33.43731 -112.00032 1138 ft 5 kts
2026-05-07 15:07 33.43773 -112.00032 1137 ft 6 kts
2026-05-07 15:07 33.43821 -112.00032 1138 ft 9 kts
2026-05-07 15:07 33.43880 -112.00037 1136 ft 8 kts 342°
2026-05-07 15:08 33.43905 -112.00085 1137 ft 7 kts 273°
2026-05-07 15:08 33.43905 -112.00150 1134 ft 11 kts 270°
2026-05-07 15:08 33.43905 -112.00247 1134 ft 12 kts 270°
2026-05-07 15:08 33.43890 -112.00340 1135 ft 11 kts 246°
2026-05-07 15:09 33.43830 -112.00381 1136 ft 10 kts 182°
2026-05-07 15:09 33.43741 -112.00382 1136 ft 17 kts 180°
2026-05-07 15:09 33.43621 -112.00382 1139 ft 17 kts 180°
2026-05-07 15:09 33.43501 -112.00382 1136 ft 17 kts 180°
2026-05-07 15:10 33.43382 -112.00382 1136 ft 17 kts 180°
2026-05-07 15:10 33.43267 -112.00383 1137 ft 16 kts 180°
2026-05-07 15:10 33.43217 -112.00421 1139 ft 8 kts 258°
2026-05-07 15:10 33.43215 -112.00514 1138 ft 16 kts 269°
2026-05-07 15:11 33.43215 -112.00684 1138 ft 21 kts 270°
2026-05-07 15:11 33.43215 -112.00860 1137 ft 21 kts 270°
2026-05-07 15:11 33.43215 -112.01039 1137 ft 21 kts 270°
2026-05-07 15:11 33.43216 -112.01217 1137 ft 21 kts 270°
2026-05-07 15:12 33.43215 -112.01398 1134 ft 22 kts 270°
2026-05-07 15:12 33.43215 -112.01578 1136 ft 22 kts 270°
2026-05-07 15:12 33.43215 -112.01756 1135 ft 21 kts 270°
2026-05-07 15:12 33.43215 -112.01934 1134 ft 21 kts 270°
2026-05-07 15:13 33.43216 -112.02108 1134 ft 21 kts 270°
2026-05-07 15:13 33.43216 -112.02280 1134 ft 21 kts 270°
2026-05-07 15:13 33.43216 -112.02454 1133 ft 21 kts 270°
2026-05-07 15:13 33.43216 -112.02616 1135 ft 17 kts 270°
2026-05-07 15:14 33.43205 -112.02690 1132 ft 1 kts 224°
2026-05-07 15:15 33.43170 -112.02700 1132 ft 9 kts 181°
2026-05-07 15:16 33.43106 -112.02685 1124 ft 9 kts 124°
2026-05-07 15:16 33.43105 -112.02629 1131 ft 6 kts 87°
2026-05-07 15:16 33.43106 -112.02617 1129 ft 0 kts 89°
2026-05-07 15:16 33.43106 -112.02489 1129 ft 47 kts 90°
2026-05-07 15:17 33.43105 -112.01827 1131 ft 110 kts 90°
2026-05-07 15:17 33.43105 -112.00683 1140 ft 161 kts 90°
2026-05-07 15:17 33.43108 -111.99755 1386 ft 166 kts 90°
2026-05-07 15:17 33.43152 -111.98400 1963 ft 165 kts 85°
2026-05-07 15:18 33.43238 -111.97035 2779 ft 162 kts 84°
2026-05-07 15:18 33.43319 -111.95627 3353 ft 182 kts 84°
2026-05-07 15:18 33.43402 -111.93964 3594 ft 219 kts 85°
2026-05-07 15:18 33.43485 -111.92021 4002 ft 245 kts 86°
2026-05-07 15:19 33.43556 -111.89942 4774 ft 252 kts 86°
2026-05-07 15:19 33.43433 -111.87834 5615 ft 259 kts 102°
2026-05-07 15:19 33.42650 -111.85859 6401 ft 270 kts 126°
2026-05-07 15:19 33.41357 -111.84182 7169 ft 277 kts 134°
2026-05-07 15:20 33.39470 -111.82045 8044 ft 283 kts 135°
2026-05-07 15:20 33.38516 -111.80975 8634 ft 285 kts 135°
2026-05-07 15:20 33.37064 -111.79336 9618 ft 289 kts 135°
2026-05-07 15:20 33.35596 -111.77666 10450 ft 297 kts 135°
2026-05-07 15:21 33.34045 -111.75892 10921 ft 319 kts 134°
2026-05-07 15:21 33.32411 -111.74018 11640 ft 330 kts 135°
2026-05-07 15:21 33.30740 -111.72105 12517 ft 335 kts 134°
2026-05-07 15:21 33.29048 -111.70166 13427 ft 339 kts 134°
2026-05-07 15:22 33.27337 -111.68205 14336 ft 341 kts 135°
2026-05-07 15:22 33.25616 -111.66234 15189 ft 344 kts 134°
2026-05-07 15:22 33.23879 -111.64246 16020 ft 348 kts 134°
2026-05-07 15:22 33.22126 -111.62239 16855 ft 351 kts 134°
2026-05-07 15:23 33.20380 -111.60242 17653 ft 354 kts 134°
2026-05-07 15:23 33.18590 -111.58195 18430 ft 358 kts 133°
2026-05-07 15:23 33.16783 -111.56130 19023 ft 362 kts 133°
2026-05-07 15:23 33.14949 -111.54035 19685 ft 366 kts 133°
2026-05-07 15:24 33.13102 -111.51926 20341 ft 370 kts 133°
2026-05-07 15:24 33.11231 -111.49793 21007 ft 374 kts 132°
2026-05-07 15:24 33.09343 -111.47640 21667 ft 377 kts 132°
2026-05-07 15:24 33.07467 -111.45434 22342 ft 379 kts 128°
2026-05-07 15:25 33.05871 -111.42933 22968 ft 380 kts 121°
2026-05-07 15:25 33.04405 -111.40294 23597 ft 383 kts 119°
2026-05-07 15:25 33.02951 -111.37616 24127 ft 386 kts 119°
2026-05-07 15:25 33.01487 -111.34921 24649 ft 389 kts 119°
2026-05-07 15:26 33.00006 -111.32206 25174 ft 392 kts 119°
2026-05-07 15:26 32.98515 -111.29480 25674 ft 394 kts 119°
2026-05-07 15:26 32.97028 -111.26766 26173 ft 397 kts 119°
2026-05-07 15:26 32.95515 -111.24010 26642 ft 399 kts 119°
2026-05-07 15:27 32.93987 -111.21231 27119 ft 402 kts 119°
2026-05-07 15:27 32.92451 -111.18438 27575 ft 405 kts 119°
2026-05-07 15:27 32.90903 -111.15628 28017 ft 407 kts 119°
2026-05-07 15:27 32.89343 -111.12796 28435 ft 411 kts 120°
2026-05-07 15:28 32.87763 -111.09930 28714 ft 417 kts 121°
2026-05-07 15:28 32.86162 -111.07030 29101 ft 421 kts 121°
2026-05-07 15:28 32.84549 -111.04112 29535 ft 423 kts 121°
2026-05-07 15:28 32.82927 -111.01178 29951 ft 426 kts 121°
2026-05-07 15:29 32.81294 -110.98228 30289 ft 429 kts 121°
2026-05-07 15:29 32.79649 -110.95258 30582 ft 432 kts 121°
2026-05-07 15:29 32.77990 -110.92263 30893 ft 435 kts 121°
2026-05-07 15:29 32.76321 -110.89254 31218 ft 437 kts 122°
2026-05-07 15:30 32.74641 -110.86229 31534 ft 440 kts 122°
2026-05-07 15:30 32.72957 -110.83197 31951 ft 439 kts 122°
2026-05-07 15:30 32.71275 -110.80173 32340 ft 439 kts 123°
2026-05-07 15:30 32.69588 -110.77140 32652 ft 441 kts 125°
2026-05-07 15:31 32.67894 -110.74097 32953 ft 443 kts 125°
2026-05-07 15:31 32.66202 -110.71046 33346 ft 443 kts 124°
2026-05-07 15:31 32.64722 -110.67843 33750 ft 444 kts 116°
2026-05-07 15:31 32.63675 -110.64394 34087 ft 445 kts 108°
2026-05-07 15:32 32.62856 -110.60845 34387 ft 446 kts 107°
2026-05-07 15:32 32.62080 -110.57284 34679 ft 446 kts 107°
2026-05-07 15:32 32.61305 -110.53720 34962 ft 446 kts 107°
2026-05-07 15:32 32.60526 -110.50159 35255 ft 446 kts 107°
2026-05-07 15:33 32.59743 -110.46600 35523 ft 446 kts 108°
2026-05-07 15:33 32.58954 -110.43032 35683 ft 449 kts 108°
2026-05-07 15:33 32.58168 -110.39485 35896 ft 450 kts 108°
2026-05-07 15:33 32.57371 -110.35897 36187 ft 450 kts 108°
2026-05-07 15:34 32.56574 -110.32314 36465 ft 450 kts 108°
2026-05-07 15:34 32.55775 -110.28732 36742 ft 450 kts 108°
2026-05-07 15:34 32.54975 -110.25149 36948 ft 451 kts 108°
2026-05-07 15:34 32.54171 -110.21554 36980 ft 451 kts 108°
2026-05-07 15:35 32.52563 -110.14376 36984 ft 451 kts 109°
2026-05-07 15:35 32.50943 -110.07172 36985 ft 453 kts 109°
2026-05-07 15:36 32.49313 -109.99946 36986 ft 454 kts 109°
2026-05-07 15:36 32.47680 -109.92723 36986 ft 454 kts 109°
2026-05-07 15:37 32.46043 -109.85502 36982 ft 454 kts 109°
2026-05-07 15:37 32.44401 -109.78280 36970 ft 454 kts 110°
2026-05-07 15:38 32.43173 -109.70890 36980 ft 461 kts 103°
2026-05-07 15:38 32.42236 -109.63427 36982 ft 461 kts 103°
2026-05-07 15:39 32.41292 -109.55913 36980 ft 461 kts 103°
2026-05-07 15:39 32.40339 -109.48412 36969 ft 461 kts 104°
2026-05-07 15:40 32.39375 -109.40878 36974 ft 466 kts 104°
2026-05-07 15:40 32.38397 -109.33284 36979 ft 468 kts 104°
2026-05-07 15:41 32.37414 -109.25664 36976 ft 468 kts 104°
2026-05-07 15:41 32.36426 -109.18052 36975 ft 468 kts 104°
2026-05-07 15:42 32.35277 -109.10502 36950 ft 465 kts 108°
2026-05-07 15:42 32.33916 -109.02992 36974 ft 469 kts 109°
2026-05-07 15:43 32.32525 -108.95456 36988 ft 470 kts 109°
2026-05-07 15:43 32.31154 -108.87908 36978 ft 470 kts 109°
2026-05-07 15:44 32.29794 -108.80354 36978 ft 470 kts 109°
2026-05-07 15:44 32.28442 -108.72854 37155 ft 471 kts 109°
2026-05-07 15:45 32.27064 -108.65259 37148 ft 473 kts 109°
2026-05-07 15:45 32.25677 -108.57634 37134 ft 476 kts 110°
2026-05-07 15:46 32.23581 -108.46160 37073 ft 476 kts 110°
2026-05-07 15:47 32.22178 -108.38510 37027 ft 478 kts 110°
2026-05-07 15:47 32.20758 -108.30814 36986 ft 480 kts 110°
2026-05-07 15:48 32.19334 -108.23107 36973 ft 481 kts 110°
2026-05-07 15:48 32.17905 -108.15400 36975 ft 480 kts 110°
2026-05-07 15:49 32.16472 -108.07701 36974 ft 480 kts 110°
2026-05-07 15:49 32.15033 -107.99999 36972 ft 480 kts 110°
2026-05-07 15:50 32.13591 -107.92310 36976 ft 480 kts 110°
2026-05-07 15:50 32.12144 -107.84620 36972 ft 480 kts 110°
2026-05-07 15:50 32.11419 -107.80781 37101 ft 480 kts 110°
2026-05-07 15:51 32.10702 -107.76987 37105 ft 480 kts 110°
2026-05-07 15:51 32.09235 -107.69247 37099 ft 481 kts 110°
2026-05-07 15:52 32.07773 -107.61582 37084 ft 483 kts 110°
2026-05-07 15:52 32.06295 -107.53860 37052 ft 483 kts 110°
2026-05-07 15:53 32.04820 -107.46136 37011 ft 483 kts 110°
2026-05-07 15:53 32.03339 -107.38416 36959 ft 483 kts 111°
2026-05-07 15:54 32.01846 -107.30676 36979 ft 485 kts 111°
2026-05-07 15:54 32.00344 -107.22914 36980 ft 486 kts 111°
2026-05-07 15:55 31.98839 -107.15160 36983 ft 486 kts 111°
2026-05-07 15:55 31.97329 -107.07404 36997 ft 486 kts 111°
2026-05-07 15:56 31.95808 -106.99637 37002 ft 488 kts 111°
2026-05-07 15:56 31.94276 -106.91837 36993 ft 489 kts 111°
2026-05-07 15:57 31.92739 -106.84029 37141 ft 489 kts 112°
2026-05-07 15:57 31.91199 -106.76229 37164 ft 489 kts 112°
2026-05-07 15:58 31.89663 -106.68476 37150 ft 489 kts 112°
2026-05-07 15:58 31.88109 -106.60673 37166 ft 490 kts 112°
2026-05-07 15:59 31.86548 -106.52855 37143 ft 491 kts 112°
2026-05-07 15:59 31.84984 -106.45044 37167 ft 490 kts 112°
2026-05-07 16:00 31.83415 -106.37239 37164 ft 490 kts 112°
2026-05-07 16:00 31.81842 -106.29435 37147 ft 491 kts 113°
2026-05-07 16:01 31.80076 -106.21692 37130 ft 490 kts 116°
2026-05-07 16:01 31.78148 -106.14028 37091 ft 489 kts 116°
2026-05-07 16:02 31.76212 -106.06372 37060 ft 489 kts 116°
2026-05-07 16:02 31.74292 -105.98703 37007 ft 489 kts 116°
2026-05-07 16:03 31.72375 -105.91018 37032 ft 491 kts 116°
2026-05-07 16:03 31.70453 -105.83318 37026 ft 491 kts 116°
2026-05-07 16:04 31.68528 -105.75624 37040 ft 491 kts 116°
2026-05-07 16:04 31.66598 -105.67940 37043 ft 491 kts 116°
2026-05-07 16:05 31.64661 -105.60251 37018 ft 491 kts 116°
2026-05-07 16:05 31.62730 -105.52613 37038 ft 492 kts 116°
2026-05-07 16:06 31.60780 -105.44913 37046 ft 492 kts 116°
2026-05-07 16:06 31.58827 -105.37226 37049 ft 492 kts 116°
2026-05-07 16:07 31.56870 -105.29543 37048 ft 492 kts 116°
2026-05-07 16:07 31.54906 -105.21856 37051 ft 492 kts 116°
2026-05-07 16:08 31.53254 -105.15412 37059 ft 493 kts 116°
2026-05-07 16:08 31.50959 -105.06475 37071 ft 493 kts 116°
2026-05-07 16:09 31.49315 -105.00090 37071 ft 493 kts 116°
2026-05-07 16:09 31.47331 -104.92402 37075 ft 493 kts 116°
2026-05-07 16:10 31.45338 -104.84710 37088 ft 493 kts 117°
2026-05-07 16:10 31.43346 -104.77035 37084 ft 493 kts 117°
2026-05-07 16:11 31.41348 -104.69354 37086 ft 493 kts 117°
2026-05-07 16:11 31.39348 -104.61689 37099 ft 492 kts 117°
2026-05-07 16:12 31.37342 -104.54026 37101 ft 492 kts 117°
2026-05-07 16:12 31.35333 -104.46369 37095 ft 492 kts 117°
2026-05-07 16:13 31.33318 -104.38712 37095 ft 492 kts 117°
2026-05-07 16:13 31.31299 -104.31060 37109 ft 492 kts 117°
2026-05-07 16:14 31.29275 -104.23407 37101 ft 492 kts 117°
2026-05-07 16:14 31.27247 -104.15764 37089 ft 493 kts 117°
2026-05-07 16:15 31.25209 -104.08105 37104 ft 493 kts 117°
2026-05-07 16:15 31.23169 -104.00452 37105 ft 493 kts 117°
2026-05-07 16:16 31.21125 -103.92806 37101 ft 493 kts 117°
2026-05-07 16:16 31.19078 -103.85166 37109 ft 493 kts 117°
2026-05-07 16:17 31.17022 -103.77518 37118 ft 494 kts 117°
2026-05-07 16:17 31.14973 -103.69919 37129 ft 494 kts 117°
2026-05-07 16:18 31.12905 -103.62264 37132 ft 494 kts 117°
2026-05-07 16:18 31.10834 -103.54617 37129 ft 494 kts 117°
2026-05-07 16:19 31.08760 -103.46977 37089 ft 494 kts 117°
2026-05-07 16:19 31.06681 -103.39343 37100 ft 493 kts 117°
2026-05-07 16:20 31.04601 -103.31724 37083 ft 493 kts 117°
2026-05-07 16:20 31.02518 -103.24116 37083 ft 493 kts 117°
2026-05-07 16:21 31.00430 -103.16508 37080 ft 493 kts 117°
2026-05-07 16:21 30.98337 -103.08902 37080 ft 493 kts 117°
2026-05-07 16:22 30.96238 -103.01294 37079 ft 493 kts 117°
2026-05-07 16:22 30.94217 -102.93641 37081 ft 496 kts 115°
2026-05-07 16:22 30.93262 -102.89791 37192 ft 496 kts 115°
2026-05-07 16:23 30.92306 -102.85929 37193 ft 496 kts 115°
2026-05-07 16:23 30.90389 -102.78219 37185 ft 495 kts 115°
2026-05-07 16:24 30.88464 -102.70516 37149 ft 496 kts 115°
2026-05-07 16:24 30.86531 -102.62806 37130 ft 496 kts 115°
2026-05-07 16:25 30.84593 -102.55099 37106 ft 496 kts 115°
2026-05-07 16:25 30.82654 -102.47409 37090 ft 496 kts 115°
2026-05-07 16:26 30.80717 -102.39750 37081 ft 496 kts 115°
2026-05-07 16:26 30.78765 -102.32054 37101 ft 497 kts 115°
2026-05-07 16:27 30.76807 -102.24350 37102 ft 497 kts 115°
2026-05-07 16:27 30.74843 -102.16648 37104 ft 497 kts 115°
2026-05-07 16:28 30.72876 -102.08953 37099 ft 497 kts 115°
2026-05-07 16:28 30.70904 -102.01261 37100 ft 497 kts 115°
2026-05-07 16:29 30.68924 -101.93559 37077 ft 498 kts 115°
2026-05-07 16:29 30.66935 -101.85845 37104 ft 499 kts 115°
2026-05-07 16:30 30.64939 -101.78120 37103 ft 499 kts 115°
2026-05-07 16:30 30.62941 -101.70406 37103 ft 499 kts 115°
2026-05-07 16:31 30.60935 -101.62689 37107 ft 499 kts 115°
2026-05-07 16:31 30.58924 -101.54969 37107 ft 500 kts 115°
2026-05-07 16:32 30.56920 -101.47297 37110 ft 500 kts 115°
2026-05-07 16:32 30.54898 -101.39577 37106 ft 500 kts 115°
2026-05-07 16:33 30.52874 -101.31870 37106 ft 500 kts 116°
2026-05-07 16:33 30.50843 -101.24158 37136 ft 500 kts 115°
2026-05-07 16:34 30.48805 -101.16440 37136 ft 501 kts 115°
2026-05-07 16:34 30.46764 -101.08727 37115 ft 500 kts 115°
2026-05-07 16:35 30.44722 -101.01033 37110 ft 499 kts 115°
2026-05-07 16:35 30.42676 -100.93346 37110 ft 499 kts 115°
2026-05-07 16:36 30.40626 -100.85662 37104 ft 499 kts 115°
2026-05-07 16:36 30.38571 -100.77981 37107 ft 499 kts 115°
2026-05-07 16:37 30.36513 -100.70306 37105 ft 499 kts 116°
2026-05-07 16:37 30.34450 -100.62634 37110 ft 499 kts 116°
2026-05-07 16:38 30.32384 -100.54973 37106 ft 499 kts 115°
2026-05-07 16:38 30.30327 -100.47364 37094 ft 499 kts 116°
2026-05-07 16:39 30.28252 -100.39707 37094 ft 499 kts 116°
2026-05-07 16:39 30.26174 -100.32057 37085 ft 499 kts 116°
2026-05-07 16:39 30.25133 -100.28233 36854 ft 498 kts 116°
2026-05-07 16:40 30.24094 -100.24420 36597 ft 498 kts 115°
2026-05-07 16:40 30.23052 -100.20603 36342 ft 497 kts 115°
2026-05-07 16:40 30.22010 -100.16788 36076 ft 498 kts 115°
2026-05-07 16:40 30.20965 -100.12971 35557 ft 499 kts 115°
2026-05-07 16:41 30.19904 -100.09115 34582 ft 509 kts 115°
2026-05-07 16:41 30.18821 -100.05179 33615 ft 518 kts 114°
2026-05-07 16:41 30.17727 -100.01214 32927 ft 516 kts 115°
2026-05-07 16:41 30.16551 -99.97333 32411 ft 510 kts 117°
2026-05-07 16:42 30.15342 -99.93512 31999 ft 503 kts 117°
2026-05-07 16:42 30.14140 -99.89736 31470 ft 499 kts 117°
2026-05-07 16:42 30.12942 -99.85979 30765 ft 499 kts 117°
2026-05-07 16:42 30.11733 -99.82198 29793 ft 505 kts 117°
2026-05-07 16:43 30.10506 -99.78361 28663 ft 513 kts 116°
2026-05-07 16:43 30.09269 -99.74485 27854 ft 514 kts 116°
2026-05-07 16:43 30.08047 -99.70644 27413 ft 506 kts 116°
2026-05-07 16:43 30.06835 -99.66840 26577 ft 506 kts 116°
2026-05-07 16:44 30.05616 -99.63031 25804 ft 505 kts 116°
2026-05-07 16:44 30.04399 -99.59229 25032 ft 504 kts 115°
2026-05-07 16:44 30.03193 -99.55462 24422 ft 498 kts 115°
2026-05-07 16:44 30.01987 -99.51705 23379 ft 502 kts 115°
2026-05-07 16:45 30.00770 -99.47920 22449 ft 501 kts 115°
2026-05-07 16:45 29.99577 -99.44198 22076 ft 486 kts 115°
2026-05-07 16:45 29.98426 -99.40604 21692 ft 471 kts 115°
2026-05-07 16:45 29.97291 -99.37079 20784 ft 470 kts 115°
2026-05-07 16:46 29.96141 -99.33527 19815 ft 474 kts 115°
2026-05-07 16:46 29.95008 -99.30025 19086 ft 471 kts 115°
2026-05-07 16:46 29.93871 -99.26505 18379 ft 466 kts 115°
2026-05-07 16:46 29.92745 -99.23023 17557 ft 461 kts 115°
2026-05-07 16:47 29.91573 -99.19606 16726 ft 456 kts 117°
2026-05-07 16:47 29.90350 -99.16252 15956 ft 451 kts 117°
2026-05-07 16:47 29.89128 -99.12936 15099 ft 448 kts 117°
2026-05-07 16:47 29.87916 -99.09648 14328 ft 443 kts 116°
2026-05-07 16:48 29.86718 -99.06396 13431 ft 440 kts 116°
2026-05-07 16:48 29.85529 -99.03168 12598 ft 435 kts 116°
2026-05-07 16:48 29.84356 -98.99983 11849 ft 428 kts 116°
2026-05-07 16:48 29.83060 -98.96970 11385 ft 410 kts 128°
2026-05-07 16:49 29.81320 -98.94466 11062 ft 389 kts 134°
2026-05-07 16:49 29.79569 -98.92198 10819 ft 367 kts 135°
2026-05-07 16:49 29.77916 -98.90087 10621 ft 342 kts 136°
2026-05-07 16:49 29.76376 -98.88113 10380 ft 322 kts 136°
2026-05-07 16:50 29.74911 -98.86235 10067 ft 308 kts 136°
2026-05-07 16:50 29.73516 -98.84443 9698 ft 296 kts 136°
2026-05-07 16:50 29.72153 -98.82692 9237 ft 292 kts 136°
2026-05-07 16:50 29.70792 -98.80943 8912 ft 294 kts 136°
2026-05-07 16:51 29.69429 -98.79202 8650 ft 290 kts 137°
2026-05-07 16:51 29.68102 -98.77575 8453 ft 276 kts 138°
2026-05-07 16:51 29.66804 -98.76015 8186 ft 264 kts 137°
2026-05-07 16:51 29.65553 -98.74519 7912 ft 255 kts 137°
2026-05-07 16:52 29.64309 -98.73128 7640 ft 245 kts 146°
2026-05-07 16:52 29.62858 -98.72184 7396 ft 237 kts 159°
2026-05-07 16:52 29.61325 -98.71532 7138 ft 234 kts 162°
2026-05-07 16:52 29.59775 -98.70936 6904 ft 235 kts 162°
2026-05-07 16:53 29.58224 -98.70342 6667 ft 235 kts 162°
2026-05-07 16:53 29.56678 -98.69746 6423 ft 233 kts 162°
2026-05-07 16:53 29.55147 -98.69153 6175 ft 231 kts 162°
2026-05-07 16:53 29.53628 -98.68563 5999 ft 229 kts 161°
2026-05-07 16:54 29.52121 -98.67976 5963 ft 229 kts 161°
2026-05-07 16:54 29.50608 -98.67386 5960 ft 230 kts 161°
2026-05-07 16:54 29.49092 -98.66795 5963 ft 231 kts 161°
2026-05-07 16:54 29.47569 -98.66217 5960 ft 230 kts 165°
2026-05-07 16:55 29.45988 -98.66058 5961 ft 229 kts 189°
2026-05-07 16:55 29.44535 -98.66767 5967 ft 229 kts 214°
2026-05-07 16:55 29.43294 -98.67895 5965 ft 226 kts 220°
2026-05-07 16:55 29.42136 -98.69055 5983 ft 212 kts 220°
2026-05-07 16:56 29.41068 -98.70125 5982 ft 199 kts 219°
2026-05-07 16:56 29.40020 -98.71163 5968 ft 199 kts 219°
2026-05-07 16:56 29.37910 -98.73228 5990 ft 200 kts 218°
2026-05-07 16:57 29.36838 -98.74193 5995 ft 192 kts 209°
2026-05-07 16:57 29.35657 -98.74734 5833 ft 178 kts 187°
2026-05-07 16:57 29.34494 -98.74662 5704 ft 160 kts 159°
2026-05-07 16:57 29.33591 -98.74035 5510 ft 149 kts 133°
2026-05-07 16:58 29.33077 -98.73042 5258 ft 144 kts 108°
2026-05-07 16:58 29.32978 -98.71907 5071 ft 145 kts 86°
2026-05-07 16:58 29.33193 -98.70761 4925 ft 149 kts 73°
2026-05-07 16:58 29.33424 -98.70017 4955 ft 150 kts 71°
2026-05-07 16:59 29.33819 -98.68905 4960 ft 151 kts 69°
2026-05-07 16:59 29.34222 -98.67796 4963 ft 151 kts 70°
2026-05-07 16:59 29.34609 -98.66679 4967 ft 151 kts 71°
2026-05-07 16:59 29.34976 -98.65552 4965 ft 151 kts 72°
2026-05-07 17:00 29.35353 -98.64430 4961 ft 151 kts 66°
2026-05-07 17:00 29.35922 -98.63412 4947 ft 153 kts 53°
2026-05-07 17:00 29.36655 -98.62525 4813 ft 154 kts 45°
2026-05-07 17:00 29.37449 -98.61718 4599 ft 151 kts 44°
2026-05-07 17:01 29.38237 -98.60932 4383 ft 149 kts 45°
2026-05-07 17:01 29.39011 -98.60164 4163 ft 146 kts 44°
2026-05-07 17:01 29.39775 -98.59409 3991 ft 144 kts 43°
2026-05-07 17:01 29.40527 -98.58666 3785 ft 141 kts 45°
2026-05-07 17:02 29.41247 -98.57955 3626 ft 131 kts 44°
2026-05-07 17:02 29.41922 -98.57286 3446 ft 127 kts 43°
2026-05-07 17:02 29.42594 -98.56622 3289 ft 127 kts 45°
2026-05-07 17:02 29.43261 -98.55963 3110 ft 126 kts 43°
2026-05-07 17:03 29.43928 -98.55303 2934 ft 127 kts 43°
2026-05-07 17:03 29.44594 -98.54645 2774 ft 126 kts 43°
2026-05-07 17:03 29.45255 -98.53991 2618 ft 125 kts 42°
2026-05-07 17:03 29.45913 -98.53341 2447 ft 126 kts 43°
2026-05-07 17:04 29.46576 -98.52685 2287 ft 125 kts 42°
2026-05-07 17:04 29.47233 -98.52035 2118 ft 125 kts 41°
2026-05-07 17:04 29.47878 -98.51398 1946 ft 123 kts 41°
2026-05-07 17:04 29.48532 -98.50752 1788 ft 124 kts 43°
2026-05-07 17:05 29.49181 -98.50107 1620 ft 123 kts 39°
2026-05-07 17:05 29.49832 -98.49464 1452 ft 124 kts 40°
2026-05-07 17:05 29.50479 -98.48822 1264 ft 120 kts 39°
2026-05-07 17:05 29.51125 -98.48200 1163 ft 123 kts 40°
2026-05-07 17:06 29.51777 -98.47559 942 ft 121 kts 42°
2026-05-07 17:06 29.52393 -98.46924 848 ft 119 kts 39°
2026-05-07 17:06 29.52993 -98.46324 788 ft 99 kts 40°
2026-05-07 17:06 29.53379 -98.45949 795 ft 47 kts 40°
2026-05-07 17:07 29.53528 -98.45802 800 ft 22 kts 40°
2026-05-07 17:07 29.53646 -98.45694 800 ft 20 kts 24°
2026-05-07 17:07 29.53737 -98.45742 799 ft 0 kts 286°
2026-05-07 17:09 29.52850 -98.47333 796 ft 0 kts 133°